Find Shiyan 28B-02

NORAD ID: 65226 Int'l Des: 2025-177 Owner: ZZB Country: CN operational
LEOCIRCULAR

Current View

Loading 3D Globe...

About Shiyan 28B-02

Description loading...

Upcoming Passes

Passes for default location (London). Set your location on the main map for personalized predictions.

Altitude History

Loading altitude history...

Two-Line Element Set

1 65226U 25177A 26150.02541803 .00000675 00000-0 93862-4 0 9990
2 65226 11.0004 52.1299 0003096 72.5342 287.5224 14.29393633 40937
Epoch: May 30, 2026 • Age: 15 hours

Current Status

Altitude 795.2 km
Velocity 7.46 km/s
Sub-Earth Point -10.83°S, 169.96°W
Launch Date Aug 17, 2025
Age 0.7 years
Type other

Technical Details

Classification Payload
Mass 2000.00 kg
Dry Mass 2000.00 kg
Total Mass 2000.00 kg
Length 2.50 m
Diameter 2.50 m
Span 5.00 m
Shape Box + 2 Pan
Manufacturer IMICAS
Phase Status In Orbit
Owner/State ZZB/CN

Most Searched